Regional Weather Roundup
Issued by NWS

Home | Current Version | Previous Version | Text Only | Print | Product List | Glossary Off
Versions: 1 2 3 4 5 6 7 8 9 10 11 12 13 14 15 16 17 18 19 20 21 22 23 24 25 26 27 28 29 30 31 32 33 34 35 36 37 38 39 40 41 42 43 44 45 46 47 48 49 50

000
ASUS43 KDMX 280407
RWRIA

WEATHER ROUNDUP FOR IOWA
NATIONAL WEATHER SERVICE DES MOINES IA
1100 PM CDT WED AUG 27 2014

NOTE: "FAIR" INDICATES FEW OR NO CLOUDS BELOW 12,000 FEET WITH NO
SIGNIFICANT WEATHER AND/OR OBSTRUCTIONS TO VISIBILITY.

* - THESE STATIONS ARE NOT NWS STATIONS...THUS NOT UNDER NWS
QUALITY CONTROL.  THEY ALSO DO NOT REPORT WEATHER SUCH
AS PRECIPITATION OR FOG.

IAZ001>003-012>014-020>022-031>034-043>046-280500-
   NORTHWEST IOWA

CITY           SKY/WX    TMP DP  RH WIND       PRES   REMARKS
CARROLL *      CLOUDY    68  68 100 CALM      30.10S
DENISON *      CLEAR     68  68 100 E6        30.07F
LE MARS *      CLOUDY    70  68  94 SE6       30.09F
ORANGE CITY *  CLOUDY    70  64  83 SE3       30.11S
SHELDON *      CLOUDY    66  66 100 SE5       30.10S
SIOUX CITY     CLOUDY    70  67  90 E7        30.08S
SPENCER        CLOUDY    69  63  81 E8        30.12S
STORM LAKE *   CLOUDY    68  68 100 E7        30.11F
$$

IAZ055>058-069>071-079>083-090>094-280500-
   SOUTHWEST IOWA

CITY           SKY/WX    TMP DP  RH WIND       PRES   REMARKS
ATLANTIC *     CLOUDY    70  68  94 SE6       30.09S
AUDUBON *      CLEAR     70  66  88 CALM      30.10F FOG
CLARINDA *     LGT RAIN  72  70  94 NE6       30.08F
COUNCIL BLFS * CLOUDY    70  70 100 E9        30.07S
CRESTON *      MOCLDY    70  70 100 E6        30.10R FOG
HARLAN  *      CLOUDY    68  68 100 E3        30.12S
LAMONI         MOCLDY    71  69  93 E7        30.08F
RED OAK *      CLOUDY    72  70  94 E3        30.08S
SHENANDOAH *   CLOUDY    72  70  94 E7        30.07S
$$

IAZ047>049-059>061-072>074-084-280500-
   CENTRAL IOWA

CITY           SKY/WX    TMP DP  RH WIND       PRES   REMARKS
AMES           CLOUDY    68  66  93 CALM      30.11F
ANKENY *       CLOUDY    70  68  94 E3        30.10S
CHARITON *     CLOUDY    70  68  94 NE6       30.10S
DES MOINES     CLOUDY    73  68  84 E3        30.09F
GRINNELL*      MOCLDY    68  64  88 E3        30.11F
KNOXVILLE *    CLOUDY    72  68  88 CALM      30.09S
MARSHALLTOWN   CLOUDY    67  65  93 NE6       30.11F
PELLA *        CLOUDY    72  66  83 CALM      30.11S
PERRY *        CLOUDY    70  68  94 CALM      30.10S
$$

IAZ004>006-015-016-023>025-035-036-280500-
   NORTH CENTRAL IOWA

CITY           SKY/WX    TMP DP  RH WIND       PRES   REMARKS
ALGONA *       CLOUDY    68  63  83 SE7       30.13F
CLARION *      CLOUDY    66  64  94 E6        30.13F
ESTHERVILLE    MOCLDY    63  61  93 E5        30.13S
FORT DODGE *   CLOUDY    68  64  88 E6        30.13S
MASON CITY     PTCLDY    62  60  93 SE5       30.16S
FOREST CITY *  MOCLDY    63  63 100 CALM      30.14F
IOWA FALLS *   CLOUDY    68  63  83 CALM      30.14F
$$

IAZ007>011-017>019-026>030-037>042-050>054-066-280500-
   NORTHEAST IOWA

CITY           SKY/WX    TMP DP  RH WIND       PRES   REMARKS
CEDAR RAPIDS   PTCLDY    67  62  84 E5        30.11S
CHARLES CITY * PTCLDY    63  61  94 E3        30.16S
CLINTON *      PTCLDY    63  61  94 NE5       30.14S
DECORAH *      CLEAR     61  59  94 CALM      30.15S
DUBUQUE        MOCLDY    65  61  87 NE6       30.14S
MONTICELLO *   CLEAR     64  64 100 CALM      30.13R
OELWEIN *      PTCLDY    63  61  94 NE6       30.15S
WATERLOO       MOCLDY    64  61  90 CALM      30.13R
$$

IAZ064-065-067-068-078-280500-
   EAST CENTRAL IOWA

CITY           SKY/WX    TMP DP  RH WIND       PRES   REMARKS
DAVENPORT      PTCLDY    63  60  90 NE6       30.12S
IOWA CITY      PTCLDY    69  63  81 NE5       30.11F
MT. PLEASANT * PTCLDY    68  66  94 E6        30.10S
MUSCATINE *    CLEAR     66  64  94 CALM      30.10S
QUAD CITIES    CLEAR     68  63  84 CALM      30.11S
$$

IAZ062-063-075>077-085>089-095>099-280500-
   SOUTHEAST IOWA

CITY           SKY/WX    TMP DP  RH WIND       PRES   REMARKS
BURLINGTON     MOCLDY    72  67  84 NE8       30.09S
FAIRFIELD *    CLOUDY    70  66  88 E6        30.10S
FORT MADISON * MOCLDY    72  70  94 NE3       30.10S
KEOKUK *       MOCLDY    73  72  94 NE6       30.08S
OSKALOOSA *      N/A     70  68  94 NE5       30.10S
CENTERVILLE *  CLEAR     68  68 100 E3        30.11S
OTTUMWA        CLOUDY    70  67  90 NE6       30.09F
WASHINGTON *   CLEAR     66  66 100 NE3       30.10S
$$

ABBREVIATIONS USED IN REMARKS
   TC - TEMPERATURES IN CELSIUS
  WCI - WIND CHILL INDEX
   HX - HEAT INDEX
  VSB - VISIBILITY
$$



USA.gov is the U.S. government's official web portal to all federal, state and local government web resources and services.